Year,Month,Day,Hour,Minute,Value (Times are PST for temperature in C)
2015,12,06,00,00,9.60
2015,12,06,00,01,9.60
2015,12,06,00,02,9.60
2015,12,06,00,03,9.60
2015,12,06,00,04,9.60
2015,12,06,00,05,9.60
2015,12,06,00,06,9.60
2015,12,06,00,07,9.60
2015,12,06,00,08,9.60
2015,12,06,00,09,9.60
2015,12,06,00,10,9.60
2015,12,06,00,11,9.60
2015,12,06,00,12,9.60
2015,12,06,00,13,9.60
2015,12,06,00,14,9.60
2015,12,06,00,15,9.60
2015,12,06,00,16,9.60
2015,12,06,00,17,9.70
2015,12,06,00,18,9.60
2015,12,06,00,19,9.70
2015,12,06,00,20,9.70
2015,12,06,00,21,9.70
2015,12,06,00,22,9.70
2015,12,06,00,23,9.70
2015,12,06,00,24,9.70
2015,12,06,00,25,9.70
2015,12,06,00,26,9.70
2015,12,06,00,27,9.70
2015,12,06,00,28,9.70
2015,12,06,00,29,9.70
2015,12,06,00,30,9.70
2015,12,06,00,31,9.70
2015,12,06,00,32,9.70
2015,12,06,00,33,9.70
2015,12,06,00,34,9.70
2015,12,06,00,35,9.70
2015,12,06,00,36,9.80
2015,12,06,00,37,9.80
2015,12,06,00,38,9.80
2015,12,06,00,39,9.80
2015,12,06,00,40,9.70
2015,12,06,00,41,9.70
2015,12,06,00,42,9.70
2015,12,06,00,43,9.70
2015,12,06,00,44,9.80
2015,12,06,00,45,9.70
2015,12,06,00,46,9.70
2015,12,06,00,47,9.70
2015,12,06,00,48,9.70
2015,12,06,00,49,9.70
2015,12,06,00,50,9.70
2015,12,06,00,51,9.80
2015,12,06,00,52,9.70
2015,12,06,00,53,9.80
2015,12,06,00,54,9.80
2015,12,06,00,55,9.80
2015,12,06,00,56,9.80
2015,12,06,00,57,9.80
2015,12,06,00,58,9.70
2015,12,06,00,59,9.70
2015,12,06,01,00,9.70
2015,12,06,01,01,9.70
2015,12,06,01,02,9.70
2015,12,06,01,03,9.70
2015,12,06,01,04,9.80
2015,12,06,01,05,9.80
2015,12,06,01,06,9.80
2015,12,06,01,07,9.80
2015,12,06,01,08,9.80
2015,12,06,01,09,9.80
2015,12,06,01,10,9.80
2015,12,06,01,11,9.70
2015,12,06,01,12,9.80
2015,12,06,01,13,9.80
2015,12,06,01,14,9.80
2015,12,06,01,15,9.70
2015,12,06,01,16,9.80
2015,12,06,01,17,9.80
2015,12,06,01,18,9.80
2015,12,06,01,19,9.80
2015,12,06,01,20,9.80
2015,12,06,01,21,9.80
2015,12,06,01,22,9.80
2015,12,06,01,23,9.80
2015,12,06,01,24,9.80
2015,12,06,01,25,9.80
2015,12,06,01,26,9.80
2015,12,06,01,27,9.80
2015,12,06,01,28,9.80
2015,12,06,01,29,9.90
2015,12,06,01,30,9.90
2015,12,06,01,31,9.90
2015,12,06,01,32,9.90
2015,12,06,01,33,9.90
2015,12,06,01,34,9.90
2015,12,06,01,35,9.90
2015,12,06,01,36,9.90
2015,12,06,01,37,9.90
2015,12,06,01,38,9.90
2015,12,06,01,39,9.90
2015,12,06,01,40,9.90
2015,12,06,01,41,9.90
2015,12,06,01,42,9.90
2015,12,06,01,43,9.90
2015,12,06,01,44,9.90
2015,12,06,01,45,9.90
2015,12,06,01,46,9.90
2015,12,06,01,47,9.90
2015,12,06,01,48,9.90
2015,12,06,01,49,9.90
2015,12,06,01,50,9.90
2015,12,06,01,51,9.90
2015,12,06,01,52,9.90
2015,12,06,01,53,9.90
2015,12,06,01,54,9.90
2015,12,06,01,55,9.90
2015,12,06,01,56,9.90
2015,12,06,01,57,9.90
2015,12,06,01,58,9.90
2015,12,06,01,59,9.90
2015,12,06,02,00,9.90
2015,12,06,02,01,9.90
2015,12,06,02,02,9.90
2015,12,06,02,03,9.90
2015,12,06,02,04,9.90
2015,12,06,02,05,9.90
2015,12,06,02,06,9.90
2015,12,06,02,07,9.90
2015,12,06,02,08,9.90
2015,12,06,02,09,9.90
2015,12,06,02,10,9.90
2015,12,06,02,11,9.90
2015,12,06,02,12,9.90
2015,12,06,02,13,9.90
2015,12,06,02,14,9.90
2015,12,06,02,15,9.90
2015,12,06,02,16,9.90
2015,12,06,02,17,9.90
2015,12,06,02,18,9.90
2015,12,06,02,19,9.90
2015,12,06,02,20,9.90
2015,12,06,02,21,9.90
2015,12,06,02,22,9.90
2015,12,06,02,23,9.90
2015,12,06,02,24,9.90
2015,12,06,02,25,9.90
2015,12,06,02,26,9.90
2015,12,06,02,27,9.90
2015,12,06,02,28,9.90
2015,12,06,02,29,9.90
2015,12,06,02,30,9.90
2015,12,06,02,31,9.90
2015,12,06,02,32,9.90
2015,12,06,02,33,9.90
2015,12,06,02,34,9.90
2015,12,06,02,35,9.90
2015,12,06,02,36,9.90
2015,12,06,02,37,9.90
2015,12,06,02,38,9.90
2015,12,06,02,39,9.90
2015,12,06,02,40,9.90
2015,12,06,02,41,9.90
2015,12,06,02,42,9.90
2015,12,06,02,43,9.90
2015,12,06,02,44,9.90
2015,12,06,02,45,9.90
2015,12,06,02,46,9.90
2015,12,06,02,47,9.90
2015,12,06,02,48,9.90
2015,12,06,02,49,9.90
2015,12,06,02,50,9.90
2015,12,06,02,51,9.90
2015,12,06,02,52,9.90
2015,12,06,02,53,9.90
2015,12,06,02,54,9.90
2015,12,06,02,55,9.80
2015,12,06,02,56,9.80
2015,12,06,02,57,9.80
2015,12,06,02,58,9.80
2015,12,06,02,59,9.80
2015,12,06,03,00,9.80
2015,12,06,03,01,9.80
2015,12,06,03,02,9.80
2015,12,06,03,03,9.80
2015,12,06,03,04,9.80
2015,12,06,03,05,9.80
2015,12,06,03,06,9.80
2015,12,06,03,07,9.70
2015,12,06,03,08,9.70
2015,12,06,03,09,9.70
2015,12,06,03,10,9.70
2015,12,06,03,11,9.70
2015,12,06,03,12,9.70
2015,12,06,03,13,9.70
2015,12,06,03,14,9.70
2015,12,06,03,15,9.70
2015,12,06,03,16,9.80
2015,12,06,03,17,9.80
2015,12,06,03,18,9.80
2015,12,06,03,19,9.80
2015,12,06,03,20,9.80
2015,12,06,03,21,9.80
2015,12,06,03,22,9.80
2015,12,06,03,23,9.80
2015,12,06,03,24,9.80
2015,12,06,03,25,9.80
2015,12,06,03,26,9.80
2015,12,06,03,27,9.80
2015,12,06,03,28,9.80
2015,12,06,03,29,9.80
2015,12,06,03,30,9.80
2015,12,06,03,31,9.80
2015,12,06,03,32,9.80
2015,12,06,03,33,9.80
2015,12,06,03,34,9.80
2015,12,06,03,35,9.80
2015,12,06,03,36,9.80
2015,12,06,03,37,9.80
2015,12,06,03,38,9.80
2015,12,06,03,39,9.80
2015,12,06,03,40,9.80
2015,12,06,03,41,9.80
2015,12,06,03,42,9.90
2015,12,06,03,43,9.90
2015,12,06,03,44,9.90
2015,12,06,03,45,9.90
2015,12,06,03,46,9.90
2015,12,06,03,47,9.90
2015,12,06,03,48,9.90
2015,12,06,03,49,9.90
2015,12,06,03,50,9.90
2015,12,06,03,51,9.90
2015,12,06,03,52,9.90
2015,12,06,03,53,9.90
2015,12,06,03,54,9.90
2015,12,06,03,55,9.90
2015,12,06,03,56,9.90
2015,12,06,03,57,9.90
2015,12,06,03,58,9.90
2015,12,06,03,59,9.90
2015,12,06,04,00,9.90
2015,12,06,04,01,9.90
2015,12,06,04,02,9.90
2015,12,06,04,03,9.90
2015,12,06,04,04,9.90
2015,12,06,04,05,9.90
2015,12,06,04,06,9.90
2015,12,06,04,07,9.90
2015,12,06,04,08,9.90
2015,12,06,04,09,9.90
2015,12,06,04,10,9.90
2015,12,06,04,11,9.90
2015,12,06,04,12,9.90
2015,12,06,04,13,9.90
2015,12,06,04,14,9.90
2015,12,06,04,15,9.90
2015,12,06,04,16,9.90
2015,12,06,04,17,9.90
2015,12,06,04,18,9.90
2015,12,06,04,19,9.90
2015,12,06,04,20,9.90
2015,12,06,04,21,9.90
2015,12,06,04,22,9.90
2015,12,06,04,23,9.90
2015,12,06,04,24,9.90
2015,12,06,04,25,9.90
2015,12,06,04,26,9.90
2015,12,06,04,27,9.90
2015,12,06,04,28,9.90
2015,12,06,04,29,9.90
2015,12,06,04,30,9.90
2015,12,06,04,31,9.90
2015,12,06,04,32,9.90
2015,12,06,04,33,9.90
2015,12,06,04,34,9.90
2015,12,06,04,35,9.90
2015,12,06,04,36,9.90
2015,12,06,04,37,9.90
2015,12,06,04,38,9.90
2015,12,06,04,39,9.90
2015,12,06,04,40,9.90
2015,12,06,04,41,9.90
2015,12,06,04,42,9.90
2015,12,06,04,43,9.90
2015,12,06,04,44,9.90
2015,12,06,04,45,9.90
2015,12,06,04,46,9.90
2015,12,06,04,47,9.90
2015,12,06,04,48,9.90
2015,12,06,04,49,9.80
2015,12,06,04,50,9.80
2015,12,06,04,51,9.80
2015,12,06,04,52,9.80
2015,12,06,04,53,9.80
2015,12,06,04,54,9.80
2015,12,06,04,55,9.80
2015,12,06,04,56,9.80
2015,12,06,04,57,9.80
2015,12,06,04,58,9.80
2015,12,06,04,59,9.80
2015,12,06,05,00,9.80
2015,12,06,05,01,9.80
2015,12,06,05,02,9.80
2015,12,06,05,03,9.80
2015,12,06,05,04,9.70
2015,12,06,05,05,9.70
2015,12,06,05,06,9.70
2015,12,06,05,07,9.70
2015,12,06,05,08,9.70
2015,12,06,05,09,9.70
2015,12,06,05,10,9.70
2015,12,06,05,11,9.70
2015,12,06,05,12,9.70
2015,12,06,05,13,9.70
2015,12,06,08,36,8.70
2015,12,06,08,37,8.70
2015,12,06,08,38,8.70
2015,12,06,08,39,8.70
2015,12,06,08,40,8.70
2015,12,06,08,41,8.70
2015,12,06,08,42,8.70
2015,12,06,08,43,8.80
2015,12,06,08,44,8.80
2015,12,06,08,45,8.80
2015,12,06,08,46,8.80
2015,12,06,08,47,8.70
2015,12,06,08,48,8.70
2015,12,06,08,49,8.80
2015,12,06,08,50,8.80
2015,12,06,08,51,8.80
2015,12,06,08,52,8.80
2015,12,06,08,53,8.90
2015,12,06,08,54,8.90
2015,12,06,08,55,9.00
2015,12,06,08,56,9.00
2015,12,06,08,57,9.10
2015,12,06,08,58,9.10
2015,12,06,08,59,9.20
2015,12,06,09,00,9.20
2015,12,06,09,01,9.20
2015,12,06,09,02,9.30
2015,12,06,09,03,9.30
2015,12,06,09,04,9.30
2015,12,06,09,05,9.40
2015,12,06,09,06,9.40
2015,12,06,09,07,9.40
2015,12,06,09,08,9.50
2015,12,06,09,09,9.50
2015,12,06,09,10,9.60
2015,12,06,09,11,9.60
2015,12,06,09,12,9.70
2015,12,06,09,13,9.70
2015,12,06,09,14,9.70
2015,12,06,09,15,9.70
2015,12,06,09,16,9.80
2015,12,06,09,17,9.80
2015,12,06,09,18,9.80
2015,12,06,09,19,9.90
2015,12,06,09,20,9.90
2015,12,06,09,21,9.90
2015,12,06,09,22,9.90
2015,12,06,09,23,9.90
2015,12,06,09,24,9.90
2015,12,06,09,25,9.90
2015,12,06,09,26,9.90
2015,12,06,09,27,9.90
2015,12,06,09,28,9.90
2015,12,06,09,29,9.90
2015,12,06,09,30,10.00
2015,12,06,09,31,10.10
2015,12,06,09,32,10.10
2015,12,06,09,33,10.20
2015,12,06,09,34,10.20
2015,12,06,09,35,10.20
2015,12,06,09,36,10.20
2015,12,06,09,37,10.30
2015,12,06,09,38,10.30
2015,12,06,09,39,10.40
2015,12,06,09,40,10.30
2015,12,06,09,41,10.30
2015,12,06,09,42,10.30
2015,12,06,09,43,10.30
2015,12,06,09,44,10.30
2015,12,06,09,45,10.30
2015,12,06,09,46,10.40
2015,12,06,09,47,10.40
2015,12,06,09,48,10.40
2015,12,06,09,49,10.50
2015,12,06,09,50,10.60
2015,12,06,09,51,10.60
2015,12,06,09,52,10.60
2015,12,06,09,53,10.60
2015,12,06,09,54,10.60
2015,12,06,09,55,10.60
2015,12,06,09,56,10.70
2015,12,06,09,57,10.70
2015,12,06,09,58,10.70
2015,12,06,09,59,10.60
2015,12,06,10,00,10.60
2015,12,06,10,01,10.60
2015,12,06,10,02,10.60
2015,12,06,10,03,10.60
2015,12,06,10,04,10.60
2015,12,06,10,05,10.70
2015,12,06,10,06,10.70
2015,12,06,10,07,10.70
2015,12,06,10,08,10.70
2015,12,06,10,09,10.70
2015,12,06,10,10,10.80
2015,12,06,10,11,10.80
2015,12,06,10,12,10.80
2015,12,06,10,13,10.80
2015,12,06,10,14,10.80
2015,12,06,10,15,10.90
2015,12,06,10,16,10.90
2015,12,06,10,17,10.90
2015,12,06,10,18,10.90
2015,12,06,10,19,10.90
2015,12,06,10,20,10.90
2015,12,06,10,21,10.90
2015,12,06,10,22,10.90
2015,12,06,10,23,10.90
2015,12,06,10,24,10.80
2015,12,06,10,25,10.80
2015,12,06,10,26,10.80
2015,12,06,10,27,10.80
2015,12,06,10,28,10.80
2015,12,06,10,29,10.80
2015,12,06,10,30,10.80
2015,12,06,10,31,10.80
2015,12,06,10,32,10.80
2015,12,06,10,33,10.80
2015,12,06,10,34,10.80
2015,12,06,10,35,10.80
2015,12,06,10,36,10.80
2015,12,06,10,37,10.80
2015,12,06,10,38,10.80
2015,12,06,10,39,10.90
2015,12,06,10,40,10.90
2015,12,06,10,41,10.90
2015,12,06,10,42,10.90
2015,12,06,10,43,10.90
2015,12,06,10,44,10.90
2015,12,06,10,45,10.90
2015,12,06,10,46,10.90
2015,12,06,10,47,11.00
2015,12,06,10,48,11.00
2015,12,06,10,49,11.00
2015,12,06,10,50,11.00
2015,12,06,10,51,11.00
2015,12,06,10,52,11.00
2015,12,06,10,53,11.00
2015,12,06,10,54,11.10
2015,12,06,10,55,11.10
2015,12,06,10,56,11.10
2015,12,06,10,57,11.20
2015,12,06,10,58,11.20
2015,12,06,10,59,11.30
2015,12,06,11,00,11.40
2015,12,06,11,01,11.50
2015,12,06,11,02,11.60
2015,12,06,11,03,11.60
2015,12,06,11,04,11.70
2015,12,06,11,05,11.70
2015,12,06,11,06,11.80
2015,12,06,11,07,11.80
2015,12,06,11,08,11.90
2015,12,06,11,09,11.90
2015,12,06,11,10,12.00
2015,12,06,11,11,12.10
2015,12,06,11,12,12.10
2015,12,06,11,13,12.20
2015,12,06,11,14,12.20
2015,12,06,11,15,12.30
2015,12,06,11,16,12.30
2015,12,06,11,17,12.30
2015,12,06,11,18,12.40
2015,12,06,11,19,12.40
2015,12,06,11,20,12.50
2015,12,06,11,21,12.50
2015,12,06,11,22,12.40
2015,12,06,11,23,12.40
2015,12,06,11,24,12.40
2015,12,06,11,25,12.40
2015,12,06,11,26,12.30
2015,12,06,11,27,12.30
2015,12,06,11,28,12.30
2015,12,06,11,29,12.30
2015,12,06,11,30,12.30
2015,12,06,11,31,12.20
2015,12,06,11,32,12.10
2015,12,06,11,33,12.10
2015,12,06,11,34,12.00
2015,12,06,11,35,12.00
2015,12,06,11,36,11.90
2015,12,06,11,37,11.90
2015,12,06,11,38,11.90
2015,12,06,11,39,11.90
2015,12,06,11,40,11.90
2015,12,06,11,41,11.90
2015,12,06,11,42,11.90
2015,12,06,11,43,11.90
2015,12,06,11,44,11.90
2015,12,06,11,45,11.90
2015,12,06,11,46,11.90
2015,12,06,11,47,11.90
2015,12,06,11,48,11.90
2015,12,06,11,49,11.90
2015,12,06,11,50,11.90
2015,12,06,11,51,11.90
2015,12,06,11,52,11.90
2015,12,06,11,53,11.90
2015,12,06,11,54,11.90
2015,12,06,11,55,11.80
2015,12,06,11,56,11.80
2015,12,06,11,57,11.80
2015,12,06,11,58,11.70
2015,12,06,11,59,11.70
2015,12,06,12,00,11.70
2015,12,06,12,01,11.70
2015,12,06,12,02,11.70
2015,12,06,12,03,11.70
2015,12,06,12,04,11.60
2015,12,06,12,05,11.60
2015,12,06,12,06,11.60
2015,12,06,12,07,11.60
2015,12,06,12,08,11.50
2015,12,06,12,09,11.50
2015,12,06,12,10,11.50
2015,12,06,12,11,11.40
2015,12,06,12,12,11.40
2015,12,06,12,13,11.40
2015,12,06,12,14,11.30
2015,12,06,12,15,11.30
2015,12,06,12,16,11.30
2015,12,06,12,17,11.30
2015,12,06,12,18,11.30
2015,12,06,12,19,11.20
2015,12,06,12,20,11.20
2015,12,06,12,21,11.20
2015,12,06,12,22,11.20
2015,12,06,12,23,11.20
2015,12,06,12,24,11.20
2015,12,06,12,25,11.20
2015,12,06,12,26,11.10
2015,12,06,12,27,11.10
2015,12,06,12,28,11.10
2015,12,06,12,29,11.10
2015,12,06,12,30,11.10
2015,12,06,12,31,11.10
2015,12,06,12,32,11.10
2015,12,06,12,33,11.10
2015,12,06,12,34,11.10
2015,12,06,12,35,11.10
2015,12,06,12,36,11.10
2015,12,06,12,37,11.20
2015,12,06,12,38,11.20
2015,12,06,12,39,11.20
2015,12,06,12,40,11.20
2015,12,06,12,41,11.20
2015,12,06,12,42,11.20
2015,12,06,12,43,11.20
2015,12,06,12,44,11.20
2015,12,06,12,45,11.20
2015,12,06,12,46,11.20
2015,12,06,12,47,11.20
2015,12,06,12,48,11.20
2015,12,06,12,49,11.20
2015,12,06,12,50,11.20
2015,12,06,12,51,11.10
2015,12,06,12,52,11.10
2015,12,06,12,53,11.10
2015,12,06,12,54,11.10
2015,12,06,12,55,11.10
2015,12,06,12,56,11.00
2015,12,06,12,57,11.00
2015,12,06,12,58,11.00
2015,12,06,12,59,11.00
2015,12,06,13,00,11.00
2015,12,06,13,01,11.00
2015,12,06,13,02,11.00
2015,12,06,13,03,11.00
2015,12,06,13,04,11.00
2015,12,06,13,05,11.00
2015,12,06,13,06,11.00
2015,12,06,13,07,11.00
2015,12,06,13,08,11.00
2015,12,06,13,09,11.00
2015,12,06,13,10,11.00
2015,12,06,13,11,11.00
2015,12,06,13,12,11.00
2015,12,06,13,13,11.10
2015,12,06,13,14,11.10
2015,12,06,13,15,11.00
2015,12,06,13,16,11.10
2015,12,06,13,17,11.10
2015,12,06,13,18,11.10
2015,12,06,13,19,11.10
2015,12,06,13,20,11.10
2015,12,06,13,21,11.10
2015,12,06,13,22,11.10
2015,12,06,13,23,11.10
2015,12,06,13,24,11.10
2015,12,06,13,25,11.10
2015,12,06,13,26,11.10
2015,12,06,13,27,11.10
2015,12,06,13,28,11.10
2015,12,06,13,29,11.10
2015,12,06,13,30,11.10
2015,12,06,13,31,11.10
2015,12,06,13,32,11.10
2015,12,06,13,33,11.10
2015,12,06,13,34,11.10
2015,12,06,13,35,11.10
2015,12,06,13,36,11.10
2015,12,06,13,37,11.00
2015,12,06,13,38,11.00
2015,12,06,13,39,11.00
2015,12,06,13,40,11.00
2015,12,06,13,41,11.00
2015,12,06,13,42,10.90
2015,12,06,13,43,10.90
2015,12,06,13,44,10.90
2015,12,06,13,45,10.90
2015,12,06,13,46,10.90
2015,12,06,13,47,10.90
2015,12,06,13,48,10.90
2015,12,06,13,49,10.90
2015,12,06,13,50,11.00
2015,12,06,13,51,11.00
2015,12,06,13,52,11.00
2015,12,06,13,53,11.00
2015,12,06,13,54,11.00
2015,12,06,13,55,11.10
2015,12,06,13,56,11.10
2015,12,06,13,57,11.10
2015,12,06,13,58,11.10
2015,12,06,13,59,11.10
2015,12,06,14,00,11.10
2015,12,06,14,01,11.10
2015,12,06,14,02,11.20
2015,12,06,14,03,11.10
2015,12,06,14,04,11.10
2015,12,06,14,05,11.20
2015,12,06,14,06,11.20
2015,12,06,14,07,11.20
2015,12,06,14,08,11.20
2015,12,06,14,09,11.20
2015,12,06,14,10,11.20
2015,12,06,14,11,11.20
2015,12,06,14,12,11.20
2015,12,06,14,13,11.20
2015,12,06,14,14,11.20
2015,12,06,14,15,11.20
2015,12,06,14,16,11.20
2015,12,06,14,17,11.30
2015,12,06,14,18,11.30
2015,12,06,14,19,11.30
2015,12,06,14,20,11.30
2015,12,06,14,21,11.30
2015,12,06,14,22,11.30
2015,12,06,14,23,11.30
2015,12,06,14,24,11.30
2015,12,06,14,25,11.30
2015,12,06,14,26,11.30
2015,12,06,14,27,11.30
2015,12,06,14,28,11.30
2015,12,06,14,29,11.30
2015,12,06,14,30,11.30
2015,12,06,14,31,11.20
2015,12,06,14,32,11.20
2015,12,06,14,33,11.20
2015,12,06,14,34,11.20
2015,12,06,14,35,11.20
2015,12,06,14,36,11.20
2015,12,06,14,37,11.10
2015,12,06,14,38,11.10
2015,12,06,14,39,11.10
2015,12,06,14,40,11.10
2015,12,06,14,41,11.10
2015,12,06,14,42,11.10
2015,12,06,14,43,11.10
2015,12,06,14,44,11.10
2015,12,06,14,45,11.10
2015,12,06,14,46,11.00
2015,12,06,14,47,11.00
2015,12,06,14,48,11.00
2015,12,06,14,49,11.00
2015,12,06,14,50,11.00
2015,12,06,14,51,11.00
2015,12,06,14,52,11.00
2015,12,06,14,53,11.00
2015,12,06,14,54,11.00
2015,12,06,14,55,11.00
2015,12,06,14,56,11.00
2015,12,06,14,57,11.10
2015,12,06,14,58,11.10
2015,12,06,14,59,11.10
2015,12,06,15,00,11.00
2015,12,06,15,01,11.00
2015,12,06,15,02,11.00
2015,12,06,15,03,11.00
2015,12,06,15,04,11.00
2015,12,06,15,05,11.00
2015,12,06,15,06,10.90
2015,12,06,15,07,10.90
2015,12,06,15,08,10.90
2015,12,06,15,09,10.90
2015,12,06,15,10,10.90
2015,12,06,15,11,10.90
2015,12,06,15,12,10.90
2015,12,06,15,13,10.90
2015,12,06,15,14,10.90
2015,12,06,15,15,10.90
2015,12,06,15,16,10.80
2015,12,06,15,17,10.90
2015,12,06,15,18,10.90
2015,12,06,15,19,10.90
2015,12,06,15,20,10.90
2015,12,06,15,21,10.90
2015,12,06,15,22,10.90
2015,12,06,15,23,10.90
2015,12,06,15,24,10.90
2015,12,06,15,25,10.90
2015,12,06,15,26,10.90
2015,12,06,15,27,10.90
2015,12,06,15,28,10.90
2015,12,06,15,29,10.90
2015,12,06,15,30,10.90
2015,12,06,15,31,10.90
2015,12,06,15,32,10.90
2015,12,06,15,33,10.90
2015,12,06,15,34,10.90
2015,12,06,15,35,10.90
2015,12,06,15,36,10.90
2015,12,06,15,37,10.90
2015,12,06,15,38,10.90
2015,12,06,15,39,10.90
2015,12,06,15,40,10.90
2015,12,06,15,41,10.90
2015,12,06,15,42,10.90
2015,12,06,15,43,10.90
2015,12,06,15,44,10.90
2015,12,06,15,45,10.90
2015,12,06,15,46,10.90
2015,12,06,15,47,10.90
2015,12,06,15,48,10.90
2015,12,06,15,49,10.90
2015,12,06,15,50,10.90
2015,12,06,15,51,11.00
2015,12,06,15,52,11.00
2015,12,06,15,53,11.00
2015,12,06,15,54,11.00
2015,12,06,15,55,11.00
2015,12,06,15,56,11.00
2015,12,06,15,57,10.90
2015,12,06,15,58,10.90
2015,12,06,15,59,10.90
2015,12,06,16,00,10.90
2015,12,06,16,01,10.90
2015,12,06,16,02,10.90
2015,12,06,16,03,10.90
2015,12,06,16,04,10.90
2015,12,06,16,05,10.90
2015,12,06,16,06,10.80
2015,12,06,16,07,10.80
2015,12,06,16,08,10.80
2015,12,06,16,09,10.80
2015,12,06,16,10,10.80
2015,12,06,16,11,10.80
2015,12,06,16,12,10.80
2015,12,06,16,13,10.80
2015,12,06,16,14,10.80
2015,12,06,16,15,10.70
2015,12,06,16,16,10.70
2015,12,06,16,17,10.70
2015,12,06,16,18,10.70
2015,12,06,16,19,10.70
2015,12,06,16,20,10.70
2015,12,06,16,21,10.70
2015,12,06,16,22,10.70
2015,12,06,16,23,10.70
2015,12,06,16,24,10.70
2015,12,06,16,25,10.70
2015,12,06,16,26,10.70
2015,12,06,16,27,10.70
2015,12,06,16,28,10.70
2015,12,06,16,29,10.70
2015,12,06,16,30,10.60
2015,12,06,16,31,10.60
2015,12,06,16,32,10.60
2015,12,06,16,33,10.60
2015,12,06,16,34,10.60
2015,12,06,16,35,10.60
2015,12,06,16,36,10.60
2015,12,06,16,37,10.60
2015,12,06,16,38,10.60
2015,12,06,16,39,10.60
2015,12,06,16,40,10.60
2015,12,06,16,41,10.60
2015,12,06,16,42,10.50
2015,12,06,16,43,10.50
2015,12,06,16,44,10.50
2015,12,06,16,45,10.50
2015,12,06,16,46,10.50
2015,12,06,16,47,10.60
2015,12,06,16,48,10.60
2015,12,06,16,49,10.60
2015,12,06,16,50,10.60
2015,12,06,16,51,10.60
2015,12,06,16,52,10.60
2015,12,06,16,53,10.60
2015,12,06,16,54,10.60
2015,12,06,16,55,10.60
2015,12,06,16,56,10.60
2015,12,06,16,57,10.60
2015,12,06,16,58,10.50
2015,12,06,16,59,10.50
2015,12,06,17,00,10.50
2015,12,06,17,01,10.50
2015,12,06,17,02,10.50
2015,12,06,17,03,10.50
2015,12,06,17,04,10.50
2015,12,06,17,05,10.50
2015,12,06,17,06,10.50
2015,12,06,17,07,10.50
2015,12,06,17,08,10.50
2015,12,06,17,09,10.50
2015,12,06,17,10,10.50
2015,12,06,17,11,10.50
2015,12,06,17,12,10.50
2015,12,06,17,13,10.50
2015,12,06,17,14,10.60
2015,12,06,17,15,10.60
2015,12,06,17,16,10.60
2015,12,06,17,17,10.60
2015,12,06,17,18,10.60
2015,12,06,17,19,10.60
2015,12,06,17,20,10.60
2015,12,06,17,21,10.60
2015,12,06,17,22,10.60
2015,12,06,17,23,10.60
2015,12,06,17,24,10.60
2015,12,06,17,25,10.50
2015,12,06,17,26,10.50
2015,12,06,17,27,10.50
2015,12,06,17,28,10.50
2015,12,06,17,29,10.50
2015,12,06,17,30,10.50
2015,12,06,17,31,10.50
2015,12,06,17,32,10.50
2015,12,06,17,33,10.40
2015,12,06,17,34,10.40
2015,12,06,17,35,10.50
2015,12,06,17,36,10.50
2015,12,06,17,37,10.50
2015,12,06,17,38,10.50
2015,12,06,17,39,10.60
2015,12,06,17,40,10.60
2015,12,06,17,41,10.60
2015,12,06,17,42,10.60
2015,12,06,17,43,10.60
2015,12,06,17,44,10.60
2015,12,06,17,45,10.60
2015,12,06,17,46,10.60
2015,12,06,17,47,10.60
2015,12,06,17,48,10.60
2015,12,06,17,49,10.60
2015,12,06,17,50,10.60
2015,12,06,17,51,10.60
2015,12,06,17,52,10.60
2015,12,06,17,53,10.60
2015,12,06,17,54,10.60
2015,12,06,17,55,10.60
2015,12,06,17,56,10.60
2015,12,06,17,57,10.60
2015,12,06,17,58,10.60
2015,12,06,17,59,10.60
2015,12,06,18,00,10.60
2015,12,06,18,01,10.60
2015,12,06,18,02,10.60
2015,12,06,18,03,10.70
2015,12,06,18,04,10.70
2015,12,06,18,05,10.70
2015,12,06,18,06,10.70
2015,12,06,18,07,10.70
2015,12,06,18,08,10.80
2015,12,06,18,09,10.80
2015,12,06,18,10,10.80
2015,12,06,18,11,10.80
2015,12,06,18,12,10.80
2015,12,06,18,13,10.90
2015,12,06,18,14,10.90
2015,12,06,18,15,10.90
2015,12,06,18,16,10.90
2015,12,06,18,17,10.90
2015,12,06,18,18,10.90
2015,12,06,18,19,10.90
2015,12,06,18,20,10.90
2015,12,06,18,21,10.90
2015,12,06,18,22,10.90
2015,12,06,18,23,10.90
2015,12,06,18,24,10.90
2015,12,06,18,25,10.90
2015,12,06,18,26,10.90
2015,12,06,18,27,10.90
2015,12,06,18,28,10.90
2015,12,06,18,29,10.90
2015,12,06,18,30,10.90
2015,12,06,18,31,10.90
2015,12,06,18,32,11.00
2015,12,06,18,33,11.00
2015,12,06,18,34,10.90
2015,12,06,18,35,10.90
2015,12,06,18,36,11.00
2015,12,06,18,37,11.00
2015,12,06,18,38,11.00
2015,12,06,18,39,10.90
2015,12,06,18,40,10.90
2015,12,06,18,41,11.00
2015,12,06,18,42,11.00
2015,12,06,18,43,11.00
2015,12,06,18,44,11.00
2015,12,06,18,45,11.00
2015,12,06,18,46,11.10
2015,12,06,18,47,11.10
2015,12,06,18,48,11.10
2015,12,06,18,49,11.20
2015,12,06,18,50,11.20
2015,12,06,18,51,11.20
2015,12,06,18,52,11.20
2015,12,06,18,53,11.20
2015,12,06,18,54,11.20
2015,12,06,18,55,11.20
2015,12,06,18,56,11.20
2015,12,06,18,57,11.20
2015,12,06,18,58,11.20
2015,12,06,18,59,11.20
2015,12,06,19,00,11.20
2015,12,06,19,01,11.20
2015,12,06,19,02,11.20
2015,12,06,19,03,11.10
2015,12,06,19,04,11.10
2015,12,06,19,05,11.10
2015,12,06,19,06,11.20
2015,12,06,19,07,11.20
2015,12,06,19,08,11.20
2015,12,06,19,09,11.20
2015,12,06,19,10,11.30
2015,12,06,19,11,11.30
2015,12,06,19,12,11.30
2015,12,06,19,13,11.30
2015,12,06,19,14,11.30
2015,12,06,19,15,11.30
2015,12,06,19,16,11.20
2015,12,06,19,17,11.20
2015,12,06,19,18,11.30
2015,12,06,19,19,11.30
2015,12,06,19,20,11.30
2015,12,06,19,21,11.30
2015,12,06,19,22,11.40
2015,12,06,19,23,11.40
2015,12,06,19,24,11.40
2015,12,06,19,25,11.40
2015,12,06,19,26,11.40
2015,12,06,19,27,11.40
2015,12,06,19,28,11.30
2015,12,06,19,29,11.30
2015,12,06,19,30,11.30
2015,12,06,19,31,11.30
2015,12,06,19,32,11.30
2015,12,06,19,33,11.30
2015,12,06,19,34,11.30
2015,12,06,19,35,11.40
2015,12,06,19,36,11.40
2015,12,06,19,37,11.40
2015,12,06,19,38,11.50
2015,12,06,19,39,11.50
2015,12,06,19,40,11.50
2015,12,06,19,41,11.60
2015,12,06,19,42,11.60
2015,12,06,19,43,11.60
2015,12,06,19,44,11.60
2015,12,06,19,45,11.60
2015,12,06,19,46,11.60
2015,12,06,19,47,11.60
2015,12,06,19,48,11.60
2015,12,06,19,49,11.60
2015,12,06,19,50,11.60
2015,12,06,19,51,11.60
2015,12,06,19,52,11.50
2015,12,06,19,53,11.50
2015,12,06,19,54,11.50
2015,12,06,19,55,11.50
2015,12,06,19,56,11.60
2015,12,06,19,57,11.60
2015,12,06,19,58,11.60
2015,12,06,19,59,11.70
2015,12,06,20,00,11.80
2015,12,06,20,01,11.90
2015,12,06,20,02,12.00
2015,12,06,20,03,12.00
2015,12,06,20,04,12.10
2015,12,06,20,05,12.10
2015,12,06,20,06,12.10
2015,12,06,20,07,12.20
2015,12,06,20,08,12.20
2015,12,06,20,09,12.20
2015,12,06,20,10,12.10
2015,12,06,20,11,12.10
2015,12,06,20,12,12.10
2015,12,06,20,13,12.10
2015,12,06,20,14,12.00
2015,12,06,20,15,12.00
2015,12,06,20,16,12.00
2015,12,06,20,17,12.00
2015,12,06,20,18,11.90
2015,12,06,20,19,11.90
2015,12,06,20,20,11.80
2015,12,06,20,21,11.80
2015,12,06,20,22,11.70
2015,12,06,20,23,11.70
2015,12,06,20,24,11.70
2015,12,06,20,25,11.60
2015,12,06,20,26,11.60
2015,12,06,20,27,11.60
2015,12,06,20,28,11.60
2015,12,06,20,29,11.60
2015,12,06,20,30,11.60
2015,12,06,20,31,11.60
2015,12,06,20,32,11.50
2015,12,06,20,33,11.50
2015,12,06,20,34,11.40
2015,12,06,20,35,11.40
2015,12,06,20,36,11.30
2015,12,06,20,37,11.30
2015,12,06,20,38,11.30
2015,12,06,20,39,11.20
2015,12,06,20,40,11.20
2015,12,06,20,41,11.20
2015,12,06,20,42,11.20
2015,12,06,20,43,11.20
2015,12,06,20,44,11.20
2015,12,06,20,45,11.20
2015,12,06,20,46,11.20
2015,12,06,20,47,11.30
2015,12,06,20,48,11.30
2015,12,06,20,49,11.30
2015,12,06,20,50,11.40
2015,12,06,20,51,11.40
2015,12,06,20,52,11.40
2015,12,06,20,53,11.50
2015,12,06,20,54,11.50
2015,12,06,20,55,11.60
2015,12,06,20,56,11.60
2015,12,06,20,57,11.60